Location: Ebersheim
(48.3033°N, 7.4991°E)
Time: 07:17:44
(UTC+00:00)

STARLINK-1024 - Pass Details

Date: 27 February 2020
Orbit: 549 x 550 km, 53.0° (Epoch: 01 April)

Event Time Altitude Azimuth Distance (km) Brightness Sun altitude
Rises 18:19:06 0° 259° (WSW) 2,714 8.9 -12.2°
Reaches altitude 10° 18:21:22 10° 263° (W) 1,823 7.7 -12.6°
Maximum altitude 18:25:27 57° 343° (NNW) 650 4.1 -13.3°
Enters shadow 18:28:25 18° 59° (ENE) 1,398 5.2 -13.8°
